This is the latest recevied weather packets stored in our database for station/object N0EDB-13. If no packets are shown the sender has not sent any weather packets the latest 10 day(s).
| Time | Temp. | Humidity | Pressure | Rain* | Wind** | Luminosity | Snow |
|---|---|---|---|---|---|---|---|
| 1777806011 | 6.11° C | 58% | 1514 hPa | 0 mm | - | 0 W/m² | - |
| 1777805710 | 6.11° C | 57% | 1513.5 hPa | 0 mm | - | 0 W/m² | - |
| 1777805410 | 6.11° C | 58% | 1514 hPa | 0 mm | - | 0 W/m² | - |
| 1777805109 | 6.11° C | 56% | 1514 hPa | 0 mm | - | 0 W/m² | - |
| 1777804808 | 6.11° C | 56% | 1514.2 hPa | 0 mm | - | 0 W/m² | - |
| 1777804507 | 5.56° C | 51% | 1514.4 hPa | 0 mm | - | 0 W/m² | - |
| 1777804207 | 5.56° C | 46% | 1515.7 hPa | 0 mm | - | 0 W/m² | - |
| 1777803906 | 5° C | 49% | 1517.2 hPa | 0 mm | - | 0 W/m² | - |
| 1777803605 | 5° C | 50% | 1517.2 hPa | 0 mm | - | 0 W/m² | - |
| 1777803305 | 5° C | 50% | 1516.9 hPa | 0 mm | - | 0 W/m² | - |
| 1777803005 | 5° C | 50% | 1516.7 hPa | 0 mm | - | 0 W/m² | - |
| 1777802705 | 5° C | 51% | 1516.6 hPa | 0 mm | - | 0 W/m² | - |
| 1777802404 | 5° C | 51% | 1516.3 hPa | 0 mm | - | 0 W/m² | - |
| 1777802103 | 5.56° C | 54% | 1515.3 hPa | 0 mm | - | 0 W/m² | - |
| 1777801802 | 5.56° C | 55% | 1514.5 hPa | 0 mm | - | 0 W/m² | - |
| 1777801502 | 6.11° C | 56% | 1514.4 hPa | 0 mm | - | 0 W/m² | - |
| 1777801201 | 6.11° C | 58% | 1514.1 hPa | 0 mm | - | 0 W/m² | - |
| 1777800900 | 6.11° C | 59% | 1513.5 hPa | 0 mm | - | 0 W/m² | - |
| 1777800599 | 6.67° C | 59% | 1513 hPa | 0 mm | - | 0 W/m² | - |
| 1777800299 | 6.67° C | 60% | 1512.6 hPa | 0 mm | - | 0 W/m² | - |
| 1777799999 | 6.67° C | 60% | 1512.6 hPa | 0 mm | - | 0 W/m² | - |
| 1777799698 | 6.11° C | 58% | 1513.5 hPa | 0 mm | - | 0 W/m² | - |
| 1777799397 | 6.11° C | 56% | 1514.4 hPa | 0 mm | - | 0 W/m² | - |
| 1777799097 | 5.56° C | 60% | 1515.4 hPa | 0 mm | - | 0 W/m² | - |
| 1777798797 | 5.56° C | 64% | 1515.6 hPa | 0 mm | - | 0 W/m² | - |
* Rain latest hour (hover to see other rain measurements)
** Current wind speed in m/s (hover to see current wind gust speed)